DW6455 Orivesi FI current weather conditions

sailwx.info

Wind from 244 at 3 knots gusting 12

Air temperature 26.1° C
Dewpoint 17.5° C

Last reported at 2014-Jul-28 13:52 UTC.
Time now 2014-Jul-28 14:28 UTC

Location: N 61°39' E 024°21'.
View on Google Maps.

See reports from other nearby stations

  
Tides and Currents Weather Stations Pressure Air Temp Water Temp Dewpoint Dewpoint Depression Visibility Wind Speed Wind Dir Waves Ship Positions
date/time (UTC)wind fromknots sea level pressurealtimeterstation pressurevisibilityair tempwater tempwave heightnotes
2014-Jul-28 13:52 244 3 gusting 12 26.1
2014-Jul-28 13:47 244 3 gusting 12 26.1
2014-Jul-28 13:42 232 3 gusting 12 25.6
2014-Jul-28 13:37 279 3 gusting 8 25.6
2014-Jul-28 13:32 208 1 gusting 8 25.6
2014-Jul-28 13:27 215 1 gusting 8 26.1
2014-Jul-28 13:22 219 2 gusting 8 26.1
2014-Jul-28 13:17 270 2 gusting 9 26.1
2014-Jul-28 13:12 234 2 gusting 9 26.1
2014-Jul-28 13:07 258 3 gusting 14 26.7
2014-Jul-28 13:02 228 4 gusting 14 26.7
2014-Jul-28 12:57 262 3 gusting 14 27.2
2014-Jul-28 12:52 216 2 gusting 9 27.2
2014-Jul-28 12:47 249 2 gusting 9 27.2
2014-Jul-28 12:42 250 2 gusting 8 26.7
2014-Jul-28 12:37 206 2 gusting 8 26.7
2014-Jul-28 12:32 192 1 gusting 10 26.7
2014-Jul-28 12:27 193 1 gusting 10 26.1
2014-Jul-28 12:22 213 0 gusting 10 25.6
2014-Jul-28 12:17 294 0 gusting 5 25.6
2014-Jul-28 12:12 242 0 gusting 5 25.0
2014-Jul-28 12:07 256 1 gusting 9 25.0
2014-Jul-28 12:02 266 2 gusting 9 25.0
2014-Jul-28 11:57 325 3 gusting 12 25.0
2014-Jul-28 11:52 191 4 gusting 12 25.6
2014-Jul-28 11:47 209 3 gusting 8 26.7
2014-Jul-28 11:42 197 1 gusting 8 27.2
2014-Jul-28 11:37 250 2 gusting 8 27.8
2014-Jul-28 11:32 268 2 gusting 8 28.3
2014-Jul-28 11:27 161 1 gusting 10 28.3
2014-Jul-28 11:22 208 1 gusting 13 28.9
2014-Jul-28 11:17 221 3 gusting 13 28.3
2014-Jul-28 11:12 215 4 gusting 13 28.3
2014-Jul-28 11:07 232 3 gusting 11 28.3
2014-Jul-28 11:02 203 2 gusting 12 27.8
2014-Jul-28 10:57 175 4 gusting 12 27.8
2014-Jul-28 10:52 211 4 gusting 12 27.2
2014-Jul-28 10:47 194 3 gusting 9 27.2
2014-Jul-28 10:42 243 2 gusting 11 27.2
2014-Jul-28 10:37 211 2 gusting 13 27.8
2014-Jul-28 10:32 219 3 gusting 13 27.8
2014-Jul-28 10:27 248 2 gusting 13 27.8
2014-Jul-28 10:22 239 1 gusting 8 27.8
2014-Jul-28 10:17 235 1 gusting 8 27.8
2014-Jul-28 10:12 235 2 gusting 7 27.2
2014-Jul-28 10:07 181 3 gusting 9 27.8
2014-Jul-28 10:02 199 3 gusting 9 27.2
2014-Jul-28 09:57 182 3 gusting 9 27.2
2014-Jul-28 09:52 240 3 gusting 9 27.2
2014-Jul-28 09:47 184 3 gusting 10 27.2
2014-Jul-28 09:42 181 3 gusting 10 27.2
2014-Jul-28 09:37 184 4 gusting 10 27.2
2014-Jul-28 09:32 191 4 gusting 9 26.7
2014-Jul-28 09:27 271 3 gusting 8 26.7
2014-Jul-28 09:22 196 1 gusting 10 26.7
2014-Jul-28 09:17 293 2 gusting 10 26.7
2014-Jul-28 09:12 258 4 gusting 10 26.7
2014-Jul-28 09:07 170 3 gusting 9 26.1
2014-Jul-28 09:02 231 1 gusting 6 26.7
2014-Jul-28 08:57 238 1 gusting 10 26.7
2014-Jul-28 08:52 224 3 gusting 10 26.1
2014-Jul-28 08:47 217 2 gusting 9 26.1
2014-Jul-28 08:42 252 2 gusting 9 26.1
2014-Jul-28 08:37 200 3 gusting 10 26.1
2014-Jul-28 08:32 194 3 gusting 11 25.6
2014-Jul-28 08:27 217 4 gusting 11 25.6
2014-Jul-28 08:22 218 4 gusting 9 25.6
2014-Jul-28 08:17 248 2 gusting 9 25.6
2014-Jul-28 08:12 224 3 gusting 9 25.6
2014-Jul-28 08:07 216 3 gusting 9 25.6
2014-Jul-28 08:02 251 2 gusting 8 26.1
2014-Jul-28 07:57 247 3 gusting 8 26.1
2014-Jul-28 07:52 198 3 gusting 8 26.1
2014-Jul-28 07:47 207 2 gusting 8 25.6
2014-Jul-28 07:42 187 1 gusting 6 25.6
2014-Jul-28 07:37 228 0 gusting 7 25.6
2014-Jul-28 07:32 153 1 gusting 7 25.6
2014-Jul-28 07:27 212 1 gusting 7 25.6
2014-Jul-28 07:22 266 1 gusting 6 25.0
2014-Jul-28 07:17 202 1 gusting 6 24.4
2014-Jul-28 07:12 190 1 gusting 6 24.4
2014-Jul-28 07:07 178 2 gusting 6 23.9
2014-Jul-28 07:02 196 2 gusting 7 23.3
2014-Jul-28 06:57 209 2 gusting 7 23.3
2014-Jul-28 06:52 188 1 gusting 7 22.8
2014-Jul-28 06:47 184 0 gusting 4 22.8
2014-Jul-28 06:42 209 1 gusting 3 22.2
2014-Jul-28 06:37 203 0 gusting 4 22.2
2014-Jul-28 06:32 202 1 gusting 4 21.7
2014-Jul-28 06:27 202 1 gusting 4 21.7
2014-Jul-28 06:17 214 0 gusting 2 21.7
2014-Jul-28 06:12 215 21.1
2014-Jul-28 06:07 213 21.1
2014-Jul-28 06:02 215 21.1
2014-Jul-28 05:57 215 20.6
2014-Jul-28 05:52 215 20.6
2014-Jul-28 05:47 215 20.6
2014-Jul-28 05:42 215 20.0
2014-Jul-28 05:37 214 20.0
2014-Jul-28 05:32 213 20.0
2014-Jul-28 05:27 213 20.0
2014-Jul-28 05:22 214 20.0
2014-Jul-28 05:17 214 20.0
2014-Jul-28 05:12 214 20.0
2014-Jul-28 05:07 215 19.4
2014-Jul-28 05:02 215 19.4
2014-Jul-28 04:57 214 19.4
2014-Jul-28 04:52 215 19.4
2014-Jul-28 04:47 215 19.4
2014-Jul-28 04:42 215 19.4
2014-Jul-28 04:37 214 19.4
2014-Jul-28 04:32 215 19.4
2014-Jul-28 04:27 214 19.4
2014-Jul-28 04:22 215 19.4
2014-Jul-28 04:17 215 18.9
2014-Jul-28 04:12 215 18.9
2014-Jul-28 04:07 213 18.9
2014-Jul-28 04:02 214 18.3
2014-Jul-28 03:57 214 18.3
2014-Jul-28 03:52 214 18.3
2014-Jul-28 03:47 214 17.8
2014-Jul-28 03:42 214 17.8
2014-Jul-28 03:37 215 17.8
2014-Jul-28 03:32 215 17.8
2014-Jul-28 03:27 215 17.2
2014-Jul-28 03:22 213 17.2
2014-Jul-28 03:17 215 17.2
2014-Jul-28 03:12 215 16.7
2014-Jul-28 03:07 214 16.7
2014-Jul-28 03:02 214 16.7
2014-Jul-28 02:57 215 16.1
2014-Jul-28 02:52 213 16.1
2014-Jul-28 02:47 214 16.1
2014-Jul-28 02:42 214 16.1
2014-Jul-28 02:37 214 15.6
2014-Jul-28 02:32 214 15.6
2014-Jul-28 02:27 214 15.6
2014-Jul-28 02:22 213 15.6
2014-Jul-28 02:17 214 15.6
2014-Jul-28 02:12 215 15.6
2014-Jul-28 02:07 215 15.6
2014-Jul-28 02:02 215 0 gusting 1 15.6
2014-Jul-28 01:57 214 0 gusting 0 15.6
2014-Jul-28 01:52 214 15.6
2014-Jul-28 01:47 214 15.6
2014-Jul-28 01:42 214 15.6
2014-Jul-28 01:37 214 15.6
2014-Jul-28 01:32 215 15.6
2014-Jul-28 01:27 214 15.6
2014-Jul-28 01:22 214 15.6
2014-Jul-28 01:17 214 15.6
2014-Jul-28 01:12 213 15.6
2014-Jul-28 01:07 214 15.6
2014-Jul-28 01:02 215 15.6
2014-Jul-28 00:57 214 0 gusting 1 15.6
2014-Jul-28 00:52 214 0 gusting 1 15.6
2014-Jul-28 00:47 214 0 gusting 1 15.6
2014-Jul-28 00:42 215 15.6
2014-Jul-28 00:37 213 15.6
2014-Jul-28 00:32 215 15.6
2014-Jul-28 00:27 215 15.6
2014-Jul-28 00:22 214 15.6
2014-Jul-28 00:17 213 15.6
2014-Jul-28 00:12 214 0 gusting 1 15.6
2014-Jul-28 00:07 214 0 gusting 1 15.6
2014-Jul-28 00:02 214 15.6
2014-Jul-27 23:57 214 15.6
2014-Jul-27 23:52 215 15.6
2014-Jul-27 23:47 215 15.6
2014-Jul-27 23:42 214 15.6
2014-Jul-27 23:37 215 15.6
2014-Jul-27 23:32 215 15.6
2014-Jul-27 23:27 214 0 gusting 1 15.6
2014-Jul-27 23:22 213 15.6
2014-Jul-27 23:17 215 15.6
2014-Jul-27 23:12 215 16.1
2014-Jul-27 23:07 214 16.1
2014-Jul-27 23:02 214 16.1
2014-Jul-27 22:57 214 16.1
2014-Jul-27 22:52 214 16.1
2014-Jul-27 22:47 214 16.1
2014-Jul-27 22:42 215 16.1
2014-Jul-27 22:37 214 16.7
2014-Jul-27 22:32 214 16.7
2014-Jul-27 22:27 215 16.7
2014-Jul-27 22:22 214 16.7
2014-Jul-27 22:17 215 16.7
2014-Jul-27 22:12 213 17.2
2014-Jul-27 22:07 215 17.2
2014-Jul-27 22:02 213 17.2
2014-Jul-27 21:57 215 17.2
2014-Jul-27 21:52 214 17.8
2014-Jul-27 21:47 215 17.8
2014-Jul-27 21:42 214 17.8
2014-Jul-27 21:37 214 17.8
2014-Jul-27 21:32 214 17.8
2014-Jul-27 21:27 215 18.3
2014-Jul-27 21:22 214 18.3
2014-Jul-27 21:17 215 18.9
2014-Jul-27 21:12 214 18.9
2014-Jul-27 21:07 213 18.9
2014-Jul-27 21:02 213 18.9
2014-Jul-27 20:57 214 19.4
2014-Jul-27 20:52 214 19.4
2014-Jul-27 20:47 214 19.4
2014-Jul-27 20:42 215 0 gusting 2 19.4
2014-Jul-27 20:37 213 0 gusting 2 19.4
2014-Jul-27 20:32 214 19.4
2014-Jul-27 20:27 214 20.0
2014-Jul-27 20:22 214 20.0
2014-Jul-27 20:17 214 20.0
2014-Jul-27 20:12 214 20.0
2014-Jul-27 20:07 215 20.0
2014-Jul-27 20:02 215 20.6
2014-Jul-27 19:57 215 20.6
2014-Jul-27 19:52 215 0 gusting 2 20.6
2014-Jul-27 19:47 215 0 gusting 2 20.6
2014-Jul-27 19:42 215 1 gusting 2 20.6
2014-Jul-27 19:37 214 1 gusting 2 21.1
2014-Jul-27 19:32 209 0 gusting 1 21.1
2014-Jul-27 19:27 209 21.7
2014-Jul-27 19:22 210 21.7
2014-Jul-27 19:17 209 21.7
2014-Jul-27 19:12 209 22.2
2014-Jul-27 19:07 209 22.2
2014-Jul-27 19:02 209 22.2
2014-Jul-27 18:57 209 22.8
2014-Jul-27 18:52 209 0 gusting 3 22.8
2014-Jul-27 18:47 209 0 gusting 3 22.8
2014-Jul-27 18:42 23.3
2014-Jul-27 18:37 23.3
2014-Jul-27 18:32 23.3
2014-Jul-27 18:27 23.9
2014-Jul-27 18:22 23.9
2014-Jul-27 18:17 019 1 gusting 8 24.4
2014-Jul-27 18:12 345 2 gusting 8 24.4
2014-Jul-27 18:07 342 3 gusting 8 24.4
2014-Jul-27 18:02 331 2 gusting 7 24.4
2014-Jul-27 17:57 323 1 gusting 7 24.4
2014-Jul-27 17:52 309 2 gusting 7 25.0
2014-Jul-27 17:47 289 2 gusting 7 25.0
2014-Jul-27 17:42 278 1 gusting 7 25.0
2014-Jul-27 17:37 306 1 gusting 7 25.0
2014-Jul-27 17:32 297 0 gusting 7 25.0
2014-Jul-27 17:27 216 25.0
2014-Jul-27 17:22 196 25.0
2014-Jul-27 17:17 196 25.0
2014-Jul-27 17:12 193 25.0
2014-Jul-27 17:07 194 25.0
2014-Jul-27 17:02 193 25.6
2014-Jul-27 16:57 192 25.6
2014-Jul-27 16:52 193 25.6
2014-Jul-27 16:47 193 26.1
2014-Jul-27 16:42 192 26.1
2014-Jul-27 16:37 193 26.1
2014-Jul-27 16:32 194 26.1
2014-Jul-27 16:27 193 26.1
2014-Jul-27 16:22 194 0 gusting 3 26.7
2014-Jul-27 16:17 193 0 gusting 2 26.7
2014-Jul-27 16:12 213 0 gusting 2 26.7
2014-Jul-27 16:07 209 26.7
2014-Jul-27 16:02 209 0 gusting 6 26.7
2014-Jul-27 15:57 248 1 gusting 7 27.2
2014-Jul-27 15:52 248 1 gusting 7 27.2
2014-Jul-27 15:47 209 1 gusting 6 27.2
2014-Jul-27 15:42 176 1 gusting 6 27.8
2014-Jul-27 15:37 184 1 gusting 6 27.8
2014-Jul-27 15:32 216 2 gusting 6 27.8
2014-Jul-27 15:27 209 2 gusting 6 27.8
2014-Jul-27 15:22 224 1 gusting 6 27.8
2014-Jul-27 15:17 180 1 gusting 6 27.8
2014-Jul-27 15:12 174 1 gusting 6 27.8
2014-Jul-27 15:07 210 1 gusting 6 27.8
2014-Jul-27 15:02 245 1 gusting 4 28.3
2014-Jul-27 14:57 237 0 gusting 8 28.3
2014-Jul-27 14:52 207 2 gusting 9 28.3
2014-Jul-27 14:47 192 4 gusting 9 28.3
2014-Jul-27 14:42 187 3 gusting 9 28.3
2014-Jul-27 14:37 170 2 gusting 6 28.3
2014-Jul-27 14:32 181 1 gusting 4 28.3
2014-Jul-27 14:27 240 0 gusting 8 28.3
2014-Jul-27 14:22 251 2 gusting 8 28.3
2014-Jul-27 14:17 185 4 gusting 8 28.3
2014-Jul-27 14:12 231 3 gusting 7 28.3
2014-Jul-27 14:07 170 3 gusting 6 28.3
2014-Jul-27 14:02 200 2 gusting 8 28.3
2014-Jul-27 13:57 129 2 gusting 8 28.3
2014-Jul-27 13:52 212 3 gusting 8 28.3
2014-Jul-27 13:47 191 3 gusting 9 28.3
2014-Jul-27 13:42 216 3 gusting 9 28.3
2014-Jul-27 13:37 224 3 gusting 7 28.3
2014-Jul-27 13:32 180 3 gusting 7 28.3
2014-Jul-27 13:27 240 3 gusting 9 28.3
2014-Jul-27 13:22 136 3 gusting 9 28.3
2014-Jul-27 13:17 194 2 gusting 9 28.3
2014-Jul-27 13:12 192 2 gusting 7 28.3
2014-Jul-27 13:07 169 1 gusting 7 28.3
2014-Jul-27 13:02 161 2 gusting 7 28.3
2014-Jul-27 12:57 213 2 gusting 8 28.3
2014-Jul-27 12:52 207 2 gusting 9 28.3
2014-Jul-27 12:47 246 3 gusting 9 28.3
2014-Jul-27 12:42 229 3 gusting 10 28.3
2014-Jul-27 12:37 171 3 gusting 10 28.3
2014-Jul-27 12:32 198 4 gusting 10 28.3
2014-Jul-27 12:27 221 4 gusting 9 28.3
2014-Jul-27 12:22 175 4 gusting 9 28.3
2014-Jul-27 12:17 220 3 gusting 10 28.3
2014-Jul-27 12:12 199 3 gusting 10 28.3
2014-Jul-27 12:07 179 3 gusting 10 28.3
2014-Jul-27 12:02 206 2 gusting 7 28.3
2014-Jul-27 11:57 181 1 gusting 8 28.3
2014-Jul-27 11:52 165 2 gusting 9 28.3
2014-Jul-27 11:47 226 3 gusting 10 28.3
2014-Jul-27 11:42 223 4 gusting 10 28.3
2014-Jul-27 11:37 252 4 gusting 8 28.3
2014-Jul-27 11:32 219 3 gusting 8 28.3
2014-Jul-27 11:27 194 2 gusting 8 28.3
2014-Jul-27 11:22 221 3 gusting 9 28.3
2014-Jul-27 11:17 205 3 gusting 9 28.3
2014-Jul-27 11:12 190 4 gusting 10 28.3
2014-Jul-27 11:07 217 4 gusting 10 28.3
2014-Jul-27 11:02 182 4 gusting 10 28.3
2014-Jul-27 10:57 199 4 gusting 9 28.3
2014-Jul-27 10:52 264 4 gusting 9 28.3
2014-Jul-27 10:47 224 3 gusting 9 28.3
2014-Jul-27 10:42 128 4 gusting 8 28.3
2014-Jul-27 10:37 193 3 gusting 8 28.3
2014-Jul-27 10:32 219 2 gusting 8 28.3
2014-Jul-27 10:27 234 3 gusting 10 28.3
2014-Jul-27 10:22 184 4 gusting 10 28.3
2014-Jul-27 10:17 202 4 gusting 11 28.3
2014-Jul-27 10:12 223 4 gusting 11 27.8
2014-Jul-27 10:07 227 4 gusting 11 27.8
2014-Jul-27 10:02 147 5 gusting 10 27.8
2014-Jul-27 09:57 195 4 gusting 10 27.8
2014-Jul-27 09:52 187 2 gusting 8 27.8
2014-Jul-27 09:47 186 3 gusting 10 27.8
2014-Jul-27 09:42 184 4 gusting 10 27.8
2014-Jul-27 09:37 206 4 gusting 11 27.8
2014-Jul-27 09:32 200 4 gusting 11 27.8
2014-Jul-27 09:27 176 4 gusting 11 27.8
2014-Jul-27 09:22 200 4 gusting 8 27.8
2014-Jul-27 09:17 229 4 gusting 8 27.8
2014-Jul-27 09:12 153 3 gusting 8 27.8
2014-Jul-27 09:07 134 3 gusting 8 27.8
2014-Jul-27 09:02 163 3 gusting 10 27.2
2014-Jul-27 08:57 154 4 gusting 10 27.2
2014-Jul-27 08:52 151 4 gusting 10 27.2
2014-Jul-27 08:47 213 4 gusting 8 27.2
2014-Jul-27 08:42 204 3 gusting 8 27.2
2014-Jul-27 08:37 246 2 gusting 10 27.2
2014-Jul-27 08:32 182 4 gusting 10 27.2
2014-Jul-27 08:27 184 3 gusting 7 27.2
2014-Jul-27 08:22 135 2 gusting 7 27.2
2014-Jul-27 08:17 198 2 gusting 6 27.2
2014-Jul-27 08:12 212 2 gusting 6 27.2
2014-Jul-27 08:07 216 1 gusting 6 27.2
2014-Jul-27 08:02 193 2 gusting 6 26.7
2014-Jul-27 07:57 194 3 gusting 8 26.7
2014-Jul-27 07:52 180 2 gusting 8 26.7
2014-Jul-27 07:47 223 3 gusting 8 26.7
2014-Jul-27 07:42 231 3 gusting 7 26.7
2014-Jul-27 07:37 205 2 gusting 7 26.7
2014-Jul-27 07:32 175 2 gusting 6 26.7
2014-Jul-27 07:27 199 1 gusting 6 26.1
2014-Jul-27 07:22 188 0 gusting 6 26.1
2014-Jul-27 07:17 261 0 gusting 5 26.1
2014-Jul-27 07:12 205 0 gusting 5 26.1
2014-Jul-27 07:07 207 0 gusting 5 26.1
2014-Jul-27 07:02 200 0 gusting 6 25.6
2014-Jul-27 06:57 212 1 gusting 6 25.6
2014-Jul-27 06:52 216 1 gusting 4 25.6
2014-Jul-27 06:47 207 0 gusting 4 25.6
2014-Jul-27 06:42 242 25.6
2014-Jul-27 06:37 242 25.6
2014-Jul-27 06:32 197 0 gusting 6 25.0
2014-Jul-27 06:27 197 0 gusting 6 25.0
2014-Jul-27 06:22 171 1 gusting 4 25.0
2014-Jul-27 06:17 223 0 gusting 4 25.0
2014-Jul-27 06:12 211 0 gusting 5 25.0
2014-Jul-27 06:07 212 1 gusting 6 25.6
2014-Jul-27 06:02 221 1 gusting 6 25.6
2014-Jul-27 05:57 225 1 gusting 6 25.6
2014-Jul-27 05:52 201 1 gusting 4 26.1
2014-Jul-27 05:47 186 0 gusting 4 26.1
2014-Jul-27 05:42 201 0 gusting 4 26.1
2014-Jul-27 05:37 215 0 gusting 5 26.1
2014-Jul-27 05:32 215 0 gusting 5 26.1
2014-Jul-27 05:27 192 0 gusting 5 26.1
2014-Jul-27 05:22 201 0 gusting 3 25.6
2014-Jul-27 05:17 200 25.0
2014-Jul-27 05:12 203 24.4
2014-Jul-27 05:07 203 23.3
2014-Jul-27 05:02 204 22.2
2014-Jul-27 04:57 203 21.1
2014-Jul-27 04:52 202 20.6
2014-Jul-27 04:47 203 19.4
2014-Jul-27 04:42 203 19.4
2014-Jul-27 04:37 203 19.4
2014-Jul-27 04:32 203 18.9
2014-Jul-27 04:27 203 18.3
2014-Jul-27 04:22 203 18.3
2014-Jul-27 04:17 203 17.8
2014-Jul-27 04:12 202 17.8
2014-Jul-27 04:07 203 17.2
2014-Jul-27 04:02 204 17.2
2014-Jul-27 03:57 203 16.7
2014-Jul-27 03:52 203 16.7
2014-Jul-27 03:47 203 16.7
2014-Jul-27 03:42 204 0 gusting 2 16.1
2014-Jul-27 03:37 203 0 gusting 2 16.1
2014-Jul-27 03:32 203 0 gusting 2 15.6
2014-Jul-27 03:27 204 0 gusting 1 15.6
2014-Jul-27 03:22 203 15.6
2014-Jul-27 03:17 203 15.6
2014-Jul-27 03:12 203 15.6
2014-Jul-27 03:07 204 0 gusting 2 15.0
2014-Jul-27 03:02 204 15.0
2014-Jul-27 02:57 203 15.0
2014-Jul-27 02:52 203 15.0
2014-Jul-27 02:47 203 15.0
2014-Jul-27 02:42 203 15.0
2014-Jul-27 02:37 203 14.4
2014-Jul-27 02:32 202 14.4
2014-Jul-27 02:27 203 14.4
2014-Jul-27 02:22 202 14.4
2014-Jul-27 02:17 203 0 gusting 4 14.4
2014-Jul-27 02:12 204 1 gusting 3 14.4
2014-Jul-27 02:07 203 1 gusting 3 14.4
2014-Jul-27 02:02 207 0 gusting 1 14.4
2014-Jul-27 01:57 207 14.4
2014-Jul-27 01:52 207 14.4
2014-Jul-27 01:47 207 14.4
2014-Jul-27 01:42 206 15.0
2014-Jul-27 01:37 207 0 gusting 2 15.0
2014-Jul-27 01:32 207 0 gusting 2 15.0
2014-Jul-27 01:27 207 15.0
2014-Jul-27 01:22 207 15.0
2014-Jul-27 01:17 207 15.0
2014-Jul-27 01:12 207 15.0
2014-Jul-27 01:07 207 15.0
2014-Jul-27 01:02 207 15.6
2014-Jul-27 00:57 207 15.6
2014-Jul-27 00:52 207 15.6
2014-Jul-27 00:47 207 15.6
2014-Jul-27 00:42 207 15.6
2014-Jul-27 00:37 207 15.6
2014-Jul-27 00:32 206 15.6
2014-Jul-27 00:27 207 15.6
2014-Jul-27 00:22 207 16.1
2014-Jul-27 00:17 207 16.1
2014-Jul-27 00:12 207 16.1
2014-Jul-27 00:07 207 16.1
2014-Jul-27 00:02 207 16.7
2014-Jul-26 23:57 207 16.7
2014-Jul-26 23:52 207 16.7
2014-Jul-26 23:47 207 16.7
2014-Jul-26 23:42 207 0 gusting 1 16.7
2014-Jul-26 23:37 207 0 gusting 1 16.7
2014-Jul-26 23:32 207 17.2
2014-Jul-26 23:27 207 17.2
2014-Jul-26 23:22 207 17.2
2014-Jul-26 23:17 207 17.8
2014-Jul-26 23:12 207 0 gusting 2 17.8
2014-Jul-26 23:07 207 0 gusting 2 17.8
2014-Jul-26 23:02 207 17.8
2014-Jul-26 22:57 207 0 gusting 2 17.8
2014-Jul-26 22:52 207 0 gusting 2 17.8
2014-Jul-26 22:47 207 17.8
2014-Jul-26 22:42 207 17.8
2014-Jul-26 22:37 207 0 gusting 2 17.8
2014-Jul-26 22:32 207 0 gusting 3 17.8
2014-Jul-26 22:27 207 1 gusting 3 18.3
2014-Jul-26 22:22 207 1 gusting 3 18.3
2014-Jul-26 22:17 211 0 gusting 3 18.3
2014-Jul-26 22:12 246 18.3
2014-Jul-26 22:07 246 18.3
2014-Jul-26 22:02 246 18.3
2014-Jul-26 21:57 246 18.3
2014-Jul-26 21:52 246 18.3
2014-Jul-26 21:47 246 18.3
2014-Jul-26 21:42 246 18.9
2014-Jul-26 21:37 246 18.9
2014-Jul-26 21:32 246 18.9
2014-Jul-26 21:27 246 19.4
2014-Jul-26 21:22 246 19.4
2014-Jul-26 21:17 246 19.4
2014-Jul-26 21:12 246 19.4
2014-Jul-26 21:07 246 20.0
2014-Jul-26 21:02 246 20.0
2014-Jul-26 20:57 246 20.0
2014-Jul-26 20:52 246 20.6
2014-Jul-26 20:47 246 20.6
2014-Jul-26 20:42 246 20.6
2014-Jul-26 20:37 246 20.6
2014-Jul-26 20:32 246 21.1
2014-Jul-26 20:27 246 21.1
2014-Jul-26 20:22 215 21.1
2014-Jul-26 20:17 215 21.1
2014-Jul-26 20:12 215 21.1
2014-Jul-26 20:07 216 21.1
2014-Jul-26 20:02 215 21.1
2014-Jul-26 19:57 215 21.7
2014-Jul-26 19:52 215 21.7
2014-Jul-26 19:47 215 21.7
2014-Jul-26 19:42 215 22.2
2014-Jul-26 19:37 215 22.2
2014-Jul-26 19:32 215 22.2
2014-Jul-26 19:27 215 22.8
2014-Jul-26 19:22 215 22.8
2014-Jul-26 19:17 215 23.3
2014-Jul-26 19:12 215 23.3
2014-Jul-26 19:07 216 23.3
2014-Jul-26 19:02 215 23.9
2014-Jul-26 18:57 215 23.9
2014-Jul-26 18:52 215 24.4
2014-Jul-26 18:47 215 25.0
2014-Jul-26 18:42 215 25.0
2014-Jul-26 18:37 215 25.0
2014-Jul-26 18:32 215 25.6
2014-Jul-26 18:27 215 25.6
2014-Jul-26 18:22 215 25.6
2014-Jul-26 18:17 215 26.1
2014-Jul-26 18:12 215 26.1
2014-Jul-26 18:07 215 26.1
2014-Jul-26 18:02 215 26.7
2014-Jul-26 17:57 215 26.7
2014-Jul-26 17:52 215 26.7
2014-Jul-26 17:47 215 26.7
2014-Jul-26 17:42 215 0 gusting 4 26.7
2014-Jul-26 17:37 216 0 gusting 4 26.7
2014-Jul-26 17:32 213 0 gusting 3 27.2
2014-Jul-26 17:27 203 0 gusting 2 27.2
2014-Jul-26 17:22 232 27.2
2014-Jul-26 17:17 233 27.2
2014-Jul-26 17:12 232 0 gusting 2 27.8
2014-Jul-26 17:07 232 27.8
2014-Jul-26 17:02 233 0 gusting 4 27.8
2014-Jul-26 16:57 232 0 gusting 4 27.8
2014-Jul-26 16:52 186 0 gusting 3 27.8
2014-Jul-26 16:47 207 0 gusting 3 27.8
2014-Jul-26 16:42 206 0 gusting 3 28.3
2014-Jul-26 16:37 206 0 gusting 6 28.3
2014-Jul-26 16:32 206 0 gusting 6 28.3
2014-Jul-26 16:27 201 1 gusting 6 28.3
2014-Jul-26 16:22 227 1 gusting 8 28.3
2014-Jul-26 16:17 213 2 gusting 8 28.3
2014-Jul-26 16:12 219 1 gusting 8 28.3
2014-Jul-26 16:07 221 1 gusting 6 28.3
2014-Jul-26 16:02 215 1 gusting 6 28.9
2014-Jul-26 15:57 251 1 gusting 6 28.9
2014-Jul-26 15:52 205 1 gusting 6 28.9
2014-Jul-26 15:47 205 2 gusting 6 28.9
2014-Jul-26 15:42 194 2 gusting 7 28.9
2014-Jul-26 15:37 225 3 gusting 8 28.9
2014-Jul-26 15:32 252 3 gusting 8 29.4
2014-Jul-26 15:27 210 2 gusting 8 29.4
2014-Jul-26 15:22 227 2 gusting 7 29.4
2014-Jul-26 15:17 277 2 gusting 6 29.4
2014-Jul-26 15:12 175 3 gusting 6 29.4
2014-Jul-26 15:07 182 2 gusting 6 29.4
2014-Jul-26 15:02 221 2 gusting 6 30.0
2014-Jul-26 14:57 219 2 gusting 7 30.0
2014-Jul-26 14:52 149 2 gusting 10 30.0
2014-Jul-26 14:47 190 2 gusting 10 30.0
2014-Jul-26 14:42 246 4 gusting 10 30.0
2014-Jul-26 14:37 211 4 gusting 8 30.0
2014-Jul-26 14:32 150 3 gusting 7 30.0
2014-Jul-26 14:27 236 2 gusting 7 30.0
2014-Jul-26 14:22 202 2 gusting 10 30.0
2014-Jul-26 14:17 192 3 gusting 10 30.6
2014-Jul-26 14:12 186 4 gusting 10 30.6
2014-Jul-26 14:07 208 2 gusting 7 30.6
2014-Jul-26 14:02 153 1 gusting 7 30.6